"Pseudo-MPEC" for ZTF0NVf

Created 2021 Nov 30 8:07:51 UT using Find_Orb

Click here for an explanation of pseudo-MPECs

 
 Astrometry: 
     ZTF0NVf  C2021 11 25.07443118 06 54.72 +03 59 44.1    ~BP8b 18.18rUNEOCPI41
     ZTF0NVf  C2021 11 25.07681018 06 54.80 +03 59 44.8    ~BP8b 18.31rUNEOCPI41
     ZTF0NVf  C2021 11 25.07919018 06 54.85 +03 59 45.5    ~BP8b 18.48rUNEOCPI41

Station data:
(I41) Palomar Mountain--ZTF  (N33.357340 W116.859780)  US/California. 1.2-m
   f/2.44 Oschin Schmidt + CCD.

Orbital elements:  ZTF0NVf
   Perihelion 2021 Oct 12.692542 +/- 99.2964 TT = 16:37:15 (JD 2459500.192542)
Epoch 2021 Nov 25.0 TT = JDT 2459543.5   Earth MOID: 0.0046   AutoNEOCP
M  43.31267716 +/- 74.063522        (J2000 ecliptic)
n   1.00012052 +/- 1.03665          Peri.   98.26621 +/- 82.596394
a   0.99030237 +/- 0.684303         Node   273.66890 +/- 40.085831
e   0.0692938 +/- 0.240648          Incl.    3.02442 +/- 38.098169
P   0.99/359.95d           H 18.2   G  0.15   U 12.8  SR
q 0.92168049 +/- 1.11345    Q 1.05892426 +/- 187.785
From 3 observations 2021 Nov. 25 (6.9 min); mean residual 0".08
Residuals in arcseconds: 
211125 I41  .08-  .00     211125 I41  .16+  .00     211125 I41  .08-  .00     

Ephemerides (geocentric):
Date (UTC) HH   RA              Dec         delta   r     elong  mag " sig PA
---- -- -- --  -------------   -----------  ------ ------ -----  --- ---- ---
2021 11 30 08  18 11 16.060   +04 19 32.26  .04851 .94784  36.8 18??  962 138
2021 11 30 09  18 11 17.961   +04 19 34.57  .04844 .94788  36.7 18??  977 138
2021 11 30 10  18 11 19.862   +04 19 36.77  .04836 .94792  36.7 18??  992 138
2021 11 30 11  18 11 21.761   +04 19 38.85  .04829 .94796  36.7 18?? 1007 138
2021 11 30 12  18 11 23.659   +04 19 40.81  .04821 .94800  36.7 18?? 1023 138
2021 11 30 13  18 11 25.555   +04 19 42.66  .04814 .94804  36.6 18?? 1038 138
2021 11 30 14  18 11 27.451   +04 19 44.39  .04807 .94808  36.6 18?? 1054 138
2021 11 30 15  18 11 29.346   +04 19 46.01  .04799 .94812  36.6 18?? 1070 138
2021 11 30 16  18 11 31.239   +04 19 47.50  .04792 .94817  36.6 18?? 1086 138
2021 11 30 17  18 11 33.132   +04 19 48.88  .04784 .94821  36.6 18?? 1102 138
2021 11 30 18  18 11 35.023   +04 19 50.14  .04777 .94825  36.5 18?? 1118 138
2021 11 30 19  18 11 36.913   +04 19 51.29  .04769 .94829  36.5 18?? 1134 138
2021 11 30 20  18 11 38.803   +04 19 52.31  .04762 .94833  36.5 18?? 1151 138
2021 11 30 21  18 11 40.691   +04 19 53.22  .04754 .94837  36.5 18?? 1167 137
2021 11 30 22  18 11 42.578   +04 19 54.00  .04747 .94841  36.5 18?? 1184 137
2021 11 30 23  18 11 44.465   +04 19 54.67  .04739 .94846  36.4 18?? 1201 137
2021 12 01 00  18 11 46.350   +04 19 55.22  .04732 .94850  36.4 18?? 1218 137
2021 12 01 01  18 11 48.234   +04 19 55.64  .04725 .94854  36.4 18?? 1235 137
2021 12 01 02  18 11 50.118   +04 19 55.95  .04717 .94858  36.4 18?? 1252 137
2021 12 01 03  18 11 52.000   +04 19 56.13  .04710 .94862  36.4 18?? 1269 137
2021 12 01 04  18 11 53.882   +04 19 56.19  .04702 .94866  36.3 18?? 1287 137
2021 12 01 05  18 11 55.762   +04 19 56.13  .04695 .94870  36.3 18?? 1304 137
2021 12 01 06  18 11 57.642   +04 19 55.95  .04687 .94875  36.3 18?? 1322 137
2021 12 01 07  18 11 59.521   +04 19 55.64  .04680 .94879  36.3 18?? 1340 137
2021 12 01 08  18 12 01.399   +04 19 55.21  .04673 .94883  36.3 18?? 1358 137
2021 12 01 09  18 12 03.276   +04 19 54.66  .04665 .94887  36.2 18?? 1376 137
2021 12 01 10  18 12 05.152   +04 19 53.99  .04658 .94891  36.2 18?? 1394 137
2021 12 01 11  18 12 07.028   +04 19 53.19  .04650 .94895  36.2 18?? 1412 137
2021 12 01 12  18 12 08.902   +04 19 52.26  .04643 .94899  36.2 18?? 1430 137
2021 12 01 13  18 12 10.776   +04 19 51.21  .04636 .94904  36.1 18?? 1449 137
2021 12 01 14  18 12 12.649   +04 19 50.04  .04628 .94908  36.1 18?? 1468 137
2021 12 01 15  18 12 14.521   +04 19 48.74  .04621 .94912  36.1 18?? 1487 137
2021 12 01 16  18 12 16.392   +04 19 47.31  .04613 .94916  36.1 18?? 1505 137
2021 12 01 17  18 12 18.263   +04 19 45.76  .04606 .94920  36.1 18?? 1525 137
2021 12 01 18  18 12 20.132   +04 19 44.08  .04599 .94925  36.0 18?? 1544 137
2021 12 01 19  18 12 22.001   +04 19 42.27  .04591 .94929  36.0 18?? 1563 137
2021 12 01 20  18 12 23.870   +04 19 40.33  .04584 .94933  36.0 18?? 1583 137
2021 12 01 21  18 12 25.737   +04 19 38.27  .04576 .94937  36.0 18?? 1602 137
2021 12 01 22  18 12 27.604   +04 19 36.08  .04569 .94941  36.0 18?? 1622 137
2021 12 01 23  18 12 29.470   +04 19 33.76  .04562 .94945  35.9 18?? 1642 137
2021 12 02 00  18 12 31.335   +04 19 31.31  .04554 .94950  35.9 18?? 1662 137
2021 12 02 01  18 12 33.200   +04 19 28.73  .04547 .94954  35.9 18?? 1682 137
2021 12 02 02  18 12 35.064   +04 19 26.01  .04539 .94958  35.9 18?? 1702 137
2021 12 02 03  18 12 36.928   +04 19 23.17  .04532 .94962  35.9 18?? 1722 136
2021 12 02 04  18 12 38.790   +04 19 20.20  .04525 .94966  35.8 18?? 1743 136
2021 12 02 05  18 12 40.652   +04 19 17.10  .04517 .94971  35.8 18?? 1763 136
2021 12 02 06  18 12 42.514   +04 19 13.86  .04510 .94975  35.8 18?? 1784 136
2021 12 02 07  18 12 44.375   +04 19 10.50  .04503 .94979  35.8 18?? 1805 136